[[{"header":{"parameterUnit":"m.s-1","parameterCategory":1,"la1":30.2991,"la2":30.254,"lo1":-89.0895,"lo2":-89.0444,"dy":0.0017,"dx":0.0017,"nx":28,"ny":28,"refTime":"2024-10-01T03:00:00:Z","depth":0,"parameterNumber":2,"parameterNumberName":"U-component_of_WINDS"},"data":[0,0,0,0,0,0,0,0,0,0,0,0,0,0,0,0,0,0,0,0,0,0,0,0,0,0,0,0,0,0,0,0,0,0,0,0,0,0,0,0,0,0,0,0,0,0,0,0,0,0,0,0,0,0,0,0,0,0,-1.2235,-1.2234,0,-1.2156,-1.2155,-1.2154,-1.2076,-1.2075,-1.2074,-1.2073,-1.1992,-1.1991,-1.199,0,0,0,0,0,0,0,0,0,0,0,0,0,-1.2318,-1.2317,-1.2235,-1.2234,-1.2233,-1.2156,-1.2155,-1.2154,-1.2076,-1.2075,-1.2074,-1.2072,-1.1993,-1.1991,-1.199,0,0,0,0,0,0,0,0,0,0,0,0,0,-1.2265,-1.2316,-1.2235,-1.2185,-1.2179,-1.2156,-1.2155,-1.2154,-1.2076,-1.2075,-1.2073,-1.2072,-1.1993,-1.1991,-1.199,-1.201,0,0,-1.1984,-1.1983,0,0,0,0,0,0,0,0,-1.2268,-1.2262,-1.2193,-1.2188,-1.2182,-1.2124,-1.2155,-1.2106,-1.2077,-1.2116,-1.2073,-1.2071,-1.2037,-1.2032,-1.202,-1.2006,-1.2003,-1.1984,-1.1983,-1.1982,-1.1982,0,0,0,0,0,0,0,-1.2272,-1.2265,-1.2204,-1.2192,-1.2186,-1.2166,-1.2157,-1.2145,-1.2086,-1.2112,-1.2106,-1.2098,-1.2034,-1.2022,-1.2018,-1.2001,-1.1984,-1.1982,-1.1981,-1.1981,-1.2001,-1.2002,0,0,0,0,0,0,-1.2283,-1.2268,-1.2206,-1.2201,-1.2222,-1.2166,-1.2156,-1.2144,-1.2086,-1.2076,-1.2099,-1.2095,-1.2026,-1.202,-1.2015,-1.2036,-1.1982,-1.1981,-1.198,-1.1999,-1.2001,-1.2003,0,0,0,0,0,0,-1.2285,-1.2278,-1.2209,-1.2233,-1.2223,-1.2166,-1.2154,-1.2144,-1.2132,-1.2076,-1.2066,-1.2098,-1.2025,-1.2017,-1.2012,-1.2032,-1.198,-1.1978,-1.1997,-1.2,-1.2002,-1.2077,0,0,0,0,0,0,-1.2288,-1.2279,-1.2287,-1.2234,-1.2222,-1.2208,-1.2155,-1.2143,-1.2129,-1.2122,-1.2073,-1.2063,-1.2023,-1.2015,-1.201,-1.2028,-1.1977,-1.1995,-1.1998,-1.2001,-1.2073,-1.2082,-1.209,0,0,0,0,0,-1.2291,-1.2311,-1.2287,-1.228,-1.223,-1.2209,-1.2202,-1.2156,-1.2131,-1.2138,-1.2102,-1.2064,-1.203,-1.2015,-1.2009,-1.2027,-1.1994,-1.1997,-1.2001,-1.2069,-1.208,-1.209,0,0,0,0,0,0,-1.2367,-1.2303,-1.2276,-1.2279,-1.2251,-1.2196,-1.2203,-1.2169,-1.2147,-1.2141,-1.2084,-1.2074,-1.2075,-1.205,-1.2035,-1.2044,-1.2007,-1.2009,-1.2061,-1.2071,-1.2079,-1.2086,-1.1975,0,0,0,0,0,-1.2384,-1.2373,-1.2317,-1.2326,-1.2312,-1.2261,-1.225,-1.2217,-1.2184,-1.2172,-1.2135,-1.2106,-1.2088,-1.2078,-1.2058,-1.2068,-1.2057,-1.2078,-1.2086,-1.2094,-1.2097,-1.2101,-1.211,-1.2014,-1.2014,-1.2014,0,0,-1.2419,-1.2383,-1.2379,-1.234,-1.2313,-1.2303,-1.2251,-1.2242,-1.2234,-1.217,-1.2163,-1.2136,-1.2099,-1.2101,-1.2101,-1.2081,-1.2121,-1.2098,-1.2104,-1.2104,-1.2106,-1.2115,-1.2123,-1.2017,-1.2016,-1.2016,0,0,-1.2479,-1.245,-1.2454,-1.2429,-1.2389,-1.2355,-1.2356,-1.2307,-1.2286,-1.2278,-1.223,-1.222,-1.2191,-1.2166,-1.215,-1.2201,-1.2166,-1.2196,-1.2241,-1.2246,-1.2254,-1.226,-1.228,-1.2287,-1.22,-1.22,-1.22,0,-1.2528,-1.251,-1.246,-1.2455,-1.2439,-1.2381,-1.2385,-1.2363,-1.2319,-1.231,-1.2288,-1.2251,-1.2221,-1.2218,-1.2231,-1.2219,-1.2219,-1.2202,-1.2257,-1.2263,-1.2268,-1.2286,-1.2293,-1.2204,-1.2203,-1.2203,-1.2203,0,-1.2573,-1.2562,-1.257,-1.253,-1.2515,-1.2514,-1.2464,-1.2455,-1.2423,-1.2392,-1.2385,-1.2347,-1.232,-1.2317,-1.2285,-1.2309,-1.2298,-1.2267,-1.2229,-1.2282,-1.2298,-1.2304,-1.221,-1.2208,-1.2207,-1.2206,0,0,-1.2678,-1.2611,-1.2615,-1.2596,-1.2549,-1.2539,-1.2536,-1.251,-1.2504,-1.2475,-1.2472,-1.2449,-1.242,-1.2402,-1.2367,-1.2372,-1.2416,-1.234,-1.2338,-1.2357,-1.2442,-1.2466,-1.2475,-1.2392,-1.2393,-1.2394,-1.2445,0,-1.2731,-1.2722,-1.2677,-1.2681,-1.2671,-1.2615,-1.2613,-1.2584,-1.2554,-1.254,-1.2507,-1.2492,-1.2455,-1.2444,-1.2445,-1.241,-1.2432,-1.2406,-1.2389,-1.2389,-1.2401,-1.2483,-1.2508,-1.2559,-1.2451,-1.2452,-1.2452,0,-1.279,-1.2767,-1.2771,-1.2724,-1.2718,-1.2716,-1.2689,-1.2677,-1.2643,-1.262,-1.2601,-1.2562,-1.2556,-1.2519,-1.2511,-1.2494,-1.2484,-1.2466,-1.2467,-1.2464,-1.2425,-1.2484,-1.2573,-1.2582,-1.2462,-1.2461,-1.246,0,-1.2869,-1.2837,-1.2836,-1.2822,-1.2767,-1.2767,-1.2745,-1.2709,-1.2696,-1.2672,-1.2663,-1.2639,-1.2626,-1.2608,-1.2564,-1.2541,-1.2561,-1.252,-1.2543,-1.2544,-1.2551,-1.2551,-1.2641,-1.2542,-1.2542,-1.2542,-1.2542,0,-1.2932,-1.2937,-1.287,-1.287,-1.2874,-1.2822,-1.2827,-1.2799,-1.2768,-1.2761,-1.2711,-1.2705,-1.2647,-1.2635,-1.26,-1.2599,-1.2593,-1.2576,-1.2567,-1.2581,-1.2584,-1.2575,-1.2571,-1.2544,-1.2544,-1.2543,-1.2543,0,-1.3021,-1.2976,-1.2971,-1.292,-1.2907,-1.2913,-1.2869,-1.2866,-1.2833,-1.2825,-1.282,-1.2768,-1.2752,-1.2705,-1.2677,-1.2654,-1.2663,-1.2645,-1.2675,-1.2669,-1.2695,-1.2694,-1.2784,-1.2794,-1.2688,-1.2689,-1.269,0,-1.3065,-1.3068,-1.3017,-1.3009,-1.2988,-1.2976,-1.2962,-1.2911,-1.29,-1.2862,-1.2864,-1.2843,-1.2824,-1.28,-1.276,-1.2739,-1.2721,-1.2754,-1.2717,-1.2732,-1.2723,-1.2724,-1.2724,-1.2762,-1.2764,-1.2765,-1.2766,0,-1.3149,-1.3127,-1.311,-1.3086,-1.3071,-1.305,-1.3025,-1.3021,-1.2964,-1.2953,-1.2936,-1.2921,-1.2892,-1.2873,-1.2845,-1.2822,-1.2785,-1.2777,-1.2782,-1.2797,-1.2815,-1.2807,-1.2698,-1.2776,-1.2775,-1.2774,-1.2774,-1.2773,-1.3217,-1.3217,-1.3182,-1.3165,-1.3141,-1.312,-1.3115,-1.3082,-1.3066,-1.3039,-1.3009,-1.2996,-1.2962,-1.292,-1.29,-1.2889,-1.2869,-1.2875,-1.2877,-1.2879,-1.2887,-1.2816,-1.2883,-1.2883,-1.2882,-1.2882,-1.2882,0,-1.33,-1.3274,-1.3259,-1.3227,-1.3214,-1.3179,-1.3151,-1.3142,-1.3131,-1.3102,-1.3085,-1.3065,-1.3046,-1.3005,-1.2982,-1.2982,-1.2964,-1.2978,-1.2978,-1.2973,-1.2905,-1.2904,-1.2992,-1.2992,-1.2992,-1.2992,-1.2992,-1.2992,-1.3341,-1.334,-1.3314,-1.3301,-1.3275,-1.3261,-1.3248,-1.3228,-1.3205,-1.3186,-1.317,-1.3143,-1.311,-1.3084,-1.3066,-1.3054,-1.3049,-1.3068,-1.3051,-1.2988,-1.2978,-1.2968,-1.2967,-1.3067,-1.3067,-1.3121,-1.3121,-1.3122]},{"header":{"parameterUnit":"m.s-1","parameterCategory":1,"la1":30.2991,"la2":30.254,"lo1":-89.0895,"lo2":-89.0444,"dy":0.0017,"dx":0.0017,"nx":28,"ny":28,"refTime":"2024-10-01T03:00:00:Z","depth":0,"parameterNumber":3,"parameterNumberName":"V-component_of_WINDS"},"data":[0,0,0,0,0,0,0,0,0,0,0,0,0,0,0,0,0,0,0,0,0,0,0,0,0,0,0,0,0,0,0,0,0,0,0,0,0,0,0,0,0,0,0,0,0,0,0,0,0,0,0,0,0,0,0,0,0,0,-1.0371,-1.0371,0,-1.0351,-1.0351,-1.035,-1.0341,-1.0341,-1.0341,-1.0341,-1.032,-1.032,-1.0319,0,0,0,0,0,0,0,0,0,0,0,0,0,-1.0403,-1.0403,-1.0371,-1.0371,-1.0371,-1.0351,-1.0351,-1.035,-1.0341,-1.0341,-1.0341,-1.0341,-1.032,-1.032,-1.0319,0,0,0,0,0,0,0,0,0,0,0,0,0,-1.0387,-1.0402,-1.0371,-1.0364,-1.0363,-1.0351,-1.0351,-1.035,-1.0341,-1.0341,-1.0341,-1.0341,-1.0321,-1.032,-1.0319,-1.0313,0,0,-1.0316,-1.0316,0,0,0,0,0,0,0,0,-1.0388,-1.0386,-1.0365,-1.0364,-1.0363,-1.0349,-1.0354,-1.0338,-1.0341,-1.035,-1.0341,-1.0341,-1.033,-1.0328,-1.0324,-1.0312,-1.0311,-1.0316,-1.0316,-1.0315,-1.0315,0,0,0,0,0,0,0,-1.0389,-1.0386,-1.0363,-1.0365,-1.0364,-1.0362,-1.036,-1.0351,-1.034,-1.0349,-1.0348,-1.0346,-1.0329,-1.0325,-1.0324,-1.0311,-1.0316,-1.0315,-1.0315,-1.0315,-1.0294,-1.0294,0,0,0,0,0,0,-1.0391,-1.0387,-1.0364,-1.0363,-1.0376,-1.0361,-1.0359,-1.0353,-1.034,-1.0338,-1.0346,-1.0345,-1.0327,-1.0325,-1.0323,-1.0316,-1.0315,-1.0315,-1.0314,-1.0294,-1.0294,-1.0294,0,0,0,0,0,0,-1.0392,-1.0389,-1.0365,-1.0375,-1.0372,-1.0361,-1.0355,-1.0353,-1.0349,-1.0337,-1.0335,-1.0344,-1.0326,-1.0324,-1.0316,-1.0315,-1.0314,-1.0313,-1.0294,-1.0294,-1.0294,-1.0301,0,0,0,0,0,0,-1.0393,-1.0389,-1.0387,-1.0375,-1.0371,-1.0358,-1.0355,-1.0352,-1.0347,-1.0347,-1.0335,-1.0333,-1.0326,-1.0317,-1.0315,-1.0314,-1.0313,-1.0294,-1.0294,-1.0294,-1.0301,-1.0302,-1.0302,0,0,0,0,0,-1.0394,-1.0389,-1.0386,-1.0384,-1.0367,-1.0358,-1.0355,-1.0348,-1.0347,-1.0345,-1.0338,-1.0333,-1.0316,-1.0316,-1.0314,-1.0312,-1.0294,-1.0294,-1.0294,-1.0301,-1.0302,-1.0302,0,0,0,0,0,0,-1.04,-1.0387,-1.0384,-1.0375,-1.0368,-1.0356,-1.0352,-1.0349,-1.0341,-1.0341,-1.0332,-1.0329,-1.0322,-1.0316,-1.0318,-1.0307,-1.0305,-1.0304,-1.0311,-1.0311,-1.0312,-1.0313,-1.0312,0,0,0,0,0,-1.0401,-1.0394,-1.0383,-1.0376,-1.0372,-1.0363,-1.0359,-1.0354,-1.0345,-1.0342,-1.0334,-1.0327,-1.032,-1.0315,-1.0308,-1.03,-1.0298,-1.0298,-1.0299,-1.0299,-1.0299,-1.0296,-1.0297,-1.0294,-1.0294,-1.0294,0,0,-1.0401,-1.0393,-1.0389,-1.0377,-1.037,-1.0364,-1.036,-1.0353,-1.0349,-1.0341,-1.0333,-1.0328,-1.0318,-1.0311,-1.0308,-1.0306,-1.0299,-1.0299,-1.03,-1.0299,-1.0296,-1.0297,-1.0297,-1.0294,-1.0294,-1.0294,0,0,-1.0399,-1.0392,-1.0386,-1.038,-1.0371,-1.0365,-1.0364,-1.0353,-1.0349,-1.0342,-1.0336,-1.0331,-1.0318,-1.0312,-1.0308,-1.0306,-1.0302,-1.0304,-1.0306,-1.0303,-1.0304,-1.0304,-1.0304,-1.0304,-1.0303,-1.0303,-1.0303,0,-1.0401,-1.0391,-1.0383,-1.0377,-1.0373,-1.0366,-1.0361,-1.0356,-1.0344,-1.0341,-1.034,-1.0326,-1.0319,-1.0311,-1.0311,-1.0307,-1.0306,-1.0305,-1.0304,-1.0304,-1.0304,-1.0305,-1.0305,-1.0304,-1.0304,-1.0304,-1.0304,0,-1.0394,-1.0387,-1.0384,-1.0374,-1.0369,-1.0363,-1.0356,-1.0352,-1.0348,-1.0343,-1.0336,-1.0328,-1.0319,-1.0317,-1.0313,-1.0309,-1.0309,-1.0306,-1.0304,-1.0305,-1.0305,-1.0305,-1.0304,-1.0304,-1.0304,-1.0304,0,0,-1.0394,-1.0382,-1.0381,-1.0377,-1.0367,-1.0362,-1.0357,-1.0349,-1.0346,-1.0339,-1.0335,-1.0326,-1.0324,-1.0319,-1.0314,-1.0312,-1.0312,-1.0309,-1.0309,-1.0311,-1.0309,-1.0312,-1.0312,-1.031,-1.031,-1.031,-1.031,0,-1.0391,-1.0381,-1.0376,-1.0368,-1.0363,-1.0358,-1.0353,-1.0347,-1.0343,-1.0338,-1.0332,-1.0326,-1.0323,-1.0321,-1.0318,-1.0313,-1.0312,-1.0312,-1.0306,-1.0306,-1.0309,-1.0312,-1.0314,-1.0315,-1.031,-1.031,-1.031,0,-1.0386,-1.038,-1.0373,-1.0365,-1.0363,-1.0359,-1.0353,-1.0348,-1.0341,-1.0338,-1.0333,-1.0329,-1.0324,-1.0322,-1.0316,-1.0317,-1.0314,-1.0311,-1.0311,-1.031,-1.0308,-1.0312,-1.0315,-1.0315,-1.031,-1.031,-1.031,0,-1.0388,-1.0378,-1.0373,-1.037,-1.0361,-1.0359,-1.0355,-1.0348,-1.0345,-1.0339,-1.0337,-1.0331,-1.0327,-1.0323,-1.0317,-1.0317,-1.0312,-1.031,-1.031,-1.031,-1.0309,-1.0309,-1.0312,-1.0307,-1.0307,-1.0307,-1.0307,0,-1.0386,-1.0382,-1.0374,-1.0371,-1.0367,-1.0361,-1.0357,-1.0352,-1.0347,-1.0343,-1.0338,-1.0335,-1.0327,-1.0323,-1.0319,-1.0315,-1.0313,-1.0311,-1.031,-1.0312,-1.0312,-1.031,-1.031,-1.0307,-1.0307,-1.0307,-1.0307,0,-1.0387,-1.0382,-1.0376,-1.0369,-1.0367,-1.0364,-1.0358,-1.0355,-1.0351,-1.0346,-1.0345,-1.0338,-1.0333,-1.0327,-1.032,-1.0317,-1.0314,-1.0312,-1.0317,-1.0316,-1.0317,-1.0317,-1.0319,-1.032,-1.0313,-1.0313,-1.0313,0,-1.0386,-1.0383,-1.0376,-1.0374,-1.037,-1.0366,-1.0363,-1.0357,-1.0354,-1.0348,-1.0346,-1.0341,-1.0337,-1.0329,-1.0324,-1.0319,-1.0317,-1.0318,-1.0316,-1.0319,-1.0318,-1.0319,-1.0319,-1.0319,-1.0319,-1.0319,-1.0319,0,-1.0386,-1.0384,-1.0379,-1.0375,-1.0371,-1.0367,-1.0363,-1.0361,-1.0355,-1.0352,-1.0347,-1.0344,-1.0338,-1.0333,-1.0328,-1.0324,-1.0321,-1.032,-1.032,-1.0322,-1.0325,-1.0324,-1.0319,-1.032,-1.032,-1.032,-1.032,-1.032,-1.0386,-1.0384,-1.0379,-1.0375,-1.0372,-1.0368,-1.0366,-1.0362,-1.0358,-1.0353,-1.035,-1.0346,-1.0341,-1.0334,-1.033,-1.0327,-1.0326,-1.0326,-1.0326,-1.0326,-1.0327,-1.0325,-1.0326,-1.0326,-1.0326,-1.0326,-1.0326,0,-1.0386,-1.0384,-1.038,-1.0375,-1.0372,-1.037,-1.0365,-1.0363,-1.036,-1.0355,-1.0352,-1.0347,-1.0344,-1.0338,-1.0334,-1.0333,-1.0331,-1.0332,-1.0332,-1.0332,-1.0328,-1.0329,-1.0334,-1.0334,-1.0334,-1.0334,-1.0334,-1.0334,-1.0386,-1.0383,-1.038,-1.0376,-1.0373,-1.0369,-1.0367,-1.0364,-1.0361,-1.0357,-1.0354,-1.0351,-1.0346,-1.0342,-1.0339,-1.0338,-1.0337,-1.0338,-1.0336,-1.0333,-1.0332,-1.0331,-1.0332,-1.0338,-1.0338,-1.034,-1.034,-1.034]}]]